When you browse on this site, cookies collect data to enhance your experience and personalize the content and advertising you see.
Visit our Privacy Policy to learn more. By continuing to use the site, you agree to this use of cookies and data.
  • en France
  • Liste des pays
  • À 7 jours
  • Température de l'eau
  • Carte satellitaire
  • Carte météo
  • Widgets météo
  • user-avatar
    Se connecter

    Météo par heure à Bugojno

    Ce jour, 21 Mars, Jeudi

    Heure Température Précipitation Vent Pression Humidité
    00:00 +1°C° 0 mm 2 m/s 720 mmHg 95%
    01:00 +1°C° 0 mm 1 m/s 720 mmHg 95%
    02:00 +1°C° 0 mm 1 m/s 720 mmHg 94%
    03:00 +1°C° 0 mm 1 m/s 720 mmHg 94%
    04:00 -1°C° 0 mm 2 m/s 720 mmHg 93%
    05:00 +1°C° 0 mm 1 m/s 720 mmHg 92%
    06:00 +2°C° 0 mm 1 m/s 720 mmHg 90%
    07:00 +2°C° 0 mm 2 m/s 720 mmHg 89%
    08:00 +3°C° 0 mm 2 m/s 721 mmHg 83%
    09:00 +5°C° 0 mm 2 m/s 721 mmHg 78%
    10:00 +7°C° 0 mm 2 m/s 721 mmHg 73%
    11:00 +8°C° 0 mm 2 m/s 721 mmHg 71%
    12:00 +9°C° 0 mm 2 m/s 721 mmHg 68%
    13:00 +10°C° 0 mm 2 m/s 721 mmHg 66%
    14:00 +10°C° 0 mm 2 m/s 720 mmHg 66%
    15:00 +10°C° 0 mm 2 m/s 720 mmHg 67%
    16:00 +10°C° 0 mm 2 m/s 720 mmHg 67%
    17:00 +8°C° 0 mm 2 m/s 720 mmHg 73%
    18:00 +6°C° 0 mm 2 m/s 719 mmHg 79%
    19:00 +4°C° 0 mm 2 m/s 719 mmHg 85%
    20:00 +4°C° 0 mm 1 m/s 719 mmHg 86%
    21:00 +4°C° 0 mm 1 m/s 720 mmHg 87%
    22:00 +3°C° 0 mm 1 m/s 720 mmHg 87%
    23:00 +3°C° 0 mm 1 m/s 720 mmHg 87%

    Demain, 22 Mars, Vendredi

    Heure Température Précipitation Vent Pression Humidité
    00:00 +3°C° 0 mm 1 m/s 720 mmHg 86%
    01:00 +3°C° 0 mm 1 m/s 720 mmHg 86%
    02:00 +3°C° 0 mm 1 m/s 720 mmHg 85%
    03:00 +3°C° 0 mm 1 m/s 720 mmHg 84%
    04:00 +3°C° 0 mm 1 m/s 720 mmHg 83%
    05:00 +3°C° 0 mm 1 m/s 720 mmHg 81%
    06:00 +4°C° 0 mm 1 m/s 720 mmHg 78%
    07:00 +5°C° 0 mm 1 m/s 720 mmHg 75%
    08:00 +7°C° 0 mm 1 m/s 720 mmHg 68%
    09:00 +9°C° 0 mm 1 m/s 720 mmHg 61%
    10:00 +10°C° 0 mm 2 m/s 720 mmHg 54%
    11:00 +12°C° 0 mm 2 m/s 720 mmHg 52%
    12:00 +13°C° 0 mm 2 m/s 720 mmHg 49%
    13:00 +14°C° 0 mm 2 m/s 720 mmHg 47%
    14:00 +14°C° 0 mm 2 m/s 719 mmHg 49%
    15:00 +14°C° 0 mm 2 m/s 719 mmHg 51%
    16:00 +13°C° 0 mm 2 m/s 719 mmHg 53%
    17:00 +10°C° 0 mm 2 m/s 718 mmHg 61%
    18:00 +8°C° 0 mm 2 m/s 718 mmHg 68%
    19:00 +6°C° 0 mm 1 m/s 718 mmHg 76%
    20:00 +6°C° 0 mm 1 m/s 718 mmHg 77%
    21:00 +6°C° 0 mm 1 m/s 718 mmHg 79%
    22:00 +5°C° 0 mm 1 m/s 718 mmHg 80%
    23:00 +5°C° 0 mm 1 m/s 718 mmHg 80%

    Après-demain, 23 Mars, Samedi

    Heure Température Précipitation Vent Pression Humidité
    00:00 +5°C° 0 mm 1 m/s 718 mmHg 79%
    01:00 +5°C° 0 mm 1 m/s 718 mmHg 79%
    02:00 +5°C° 0 mm 1 m/s 717 mmHg 80%
    03:00 +5°C° 0 mm 1 m/s 717 mmHg 81%
    04:00 +4°C° 0 mm 1 m/s 717 mmHg 81%
    05:00 +5°C° 0 mm 1 m/s 717 mmHg 80%
    06:00 +6°C° 0 mm 1 m/s 717 mmHg 80%
    07:00 +6°C° 0 mm 1 m/s 717 mmHg 79%
    08:00 +9°C° 0 mm 1 m/s 717 mmHg 73%
    09:00 +10°C° 0 mm 2 m/s 717 mmHg 68%
    10:00 +13°C° 0 mm 2 m/s 718 mmHg 63%
    11:00 +14°C° 0 mm 2 m/s 717 mmHg 61%
    12:00 +15°C° 0 mm 2 m/s 717 mmHg 59%
    13:00 +16°C° 0 mm 2 m/s 717 mmHg 57%
    14:00 +16°C° 0 mm 2 m/s 717 mmHg 60%
    15:00 +15°C° 0 mm 2 m/s 716 mmHg 62%
    16:00 +15°C° 0 mm 2 m/s 716 mmHg 65%
    17:00 +13°C° 0 mm 2 m/s 716 mmHg 73%
    18:00 +10°C° 0 mm 2 m/s 716 mmHg 81%
    19:00 +9°C° 0 mm 1 m/s 716 mmHg 89%
    20:00 +8°C° 0 mm 1 m/s 716 mmHg 90%
    21:00 +8°C° 0 mm 1 m/s 716 mmHg 92%
    22:00 +7°C° 0 mm 1 m/s 716 mmHg 93%
    23:00 +7°C° 0 mm 1 m/s 716 mmHg 93%

    24 Mars, Dimanche

    Heure Température Précipitation Vent Pression Humidité
    00:00 +7°C° 0 mm 1 m/s 716 mmHg 93%
    01:00 +5°C° 0 mm 0 m/s 716 mmHg 93%
    02:00 +5°C° 0 mm 0 m/s 716 mmHg 93%
    03:00 +5°C° 0 mm 0 m/s 716 mmHg 92%
    04:00 +5°C° 0 mm 0 m/s 715 mmHg 92%
    05:00 +5°C° 0 mm 0 m/s 716 mmHg 90%
    06:00 +6°C° 0 mm 0 m/s 716 mmHg 88%
    07:00 +7°C° 0 mm 0 m/s 716 mmHg 86%
    08:00 +10°C° 0 mm 1 m/s 716 mmHg 73%
    09:00 +13°C° 0 mm 1 m/s 716 mmHg 60%
    10:00 +15°C° 0 mm 1 m/s 717 mmHg 47%
    11:00 +18°C° 0 mm 1 m/s 716 mmHg 42%
    12:00 +19°C° 0 mm 1 m/s 716 mmHg 37%
    13:00 +20°C° 0 mm 1 m/s 716 mmHg 32%
    14:00 +20°C° 0 mm 1 m/s 716 mmHg 32%
    15:00 +18°C° 0 mm 0 m/s 715 mmHg 32%
    16:00 +17°C° 0 mm 0 m/s 715 mmHg 32%
    17:00 +15°C° 0 mm 0 m/s 714 mmHg 40%
    18:00 +13°C° 0 mm 0 m/s 714 mmHg 48%
    19:00 +10°C° 0 mm 0 m/s 714 mmHg 56%
    20:00 +9°C° 0 mm 0 m/s 714 mmHg 59%
    21:00 +9°C° 0 mm 0 m/s 714 mmHg 62%
    22:00 +8°C° 0 mm 0 m/s 714 mmHg 65%
    23:00 +8°C° 0 mm 0 m/s 714 mmHg 66%

    25 Mars, Lundi

    Heure Température Précipitation Vent Pression Humidité
    00:00 +7°C° 0 mm 0 m/s 713 mmHg 67%
    01:00 +7°C° 0 mm 0 m/s 713 mmHg 68%
    02:00 +8°C° 0 mm 1 m/s 713 mmHg 69%
    03:00 +7°C° 0 mm 1 m/s 713 mmHg 71%
    04:00 +7°C° 0 mm 1 m/s 713 mmHg 72%
    05:00 +8°C° 0 mm 1 m/s 713 mmHg 72%
    06:00 +8°C° 0 mm 1 m/s 713 mmHg 73%
    07:00 +8°C° 0 mm 1 m/s 714 mmHg 73%
    08:00 +10°C° 0 mm 1 m/s 714 mmHg 67%
    09:00 +12°C° 0 mm 2 m/s 714 mmHg 61%
    10:00 +14°C° 0 mm 2 m/s 715 mmHg 56%
    11:00 +14°C° 0 mm 2 m/s 715 mmHg 60%
    12:00 +13°C° 0 mm 3 m/s 715 mmHg 64%
    13:00 +12°C° 0 mm 3 m/s 714 mmHg 69%
    14:00 +12°C° 0.1 mm 3 m/s 714 mmHg 70%
    15:00 +11°C° 0.1 mm 3 m/s 714 mmHg 71%
    16:00 +12°C° 0.1 mm 2 m/s 713 mmHg 71%
    17:00 +9°C° 0 mm 2 m/s 713 mmHg 78%
    18:00 +8°C° 0 mm 2 m/s 713 mmHg 84%
    19:00 +6°C° 0 mm 2 m/s 713 mmHg 91%
    20:00 +6°C° 0 mm 2 m/s 714 mmHg 92%
    21:00 +6°C° 0 mm 2 m/s 714 mmHg 93%
    22:00 +5°C° 0 mm 2 m/s 714 mmHg 94%
    23:00 +5°C° 0 mm 2 m/s 714 mmHg 94%

    26 Mars, Mardi

    Heure Température Précipitation Vent Pression Humidité
    00:00 +5°C° 0 mm 2 m/s 714 mmHg 94%
    01:00 +4°C° 0 mm 2 m/s 714 mmHg 94%
    02:00 +3°C° 0 mm 2 m/s 714 mmHg 94%
    03:00 +3°C° 0 mm 2 m/s 714 mmHg 94%
    04:00 +2°C° 0 mm 2 m/s 714 mmHg 94%
    05:00 +3°C° 0 mm 2 m/s 714 mmHg 87%
    06:00 +3°C° 0 mm 2 m/s 714 mmHg 80%
    07:00 +4°C° 0 mm 2 m/s 715 mmHg 73%
    08:00 +4°C° 0 mm 3 m/s 715 mmHg 68%
    09:00 +5°C° 0 mm 4 m/s 715 mmHg 63%
    10:00 +6°C° 0 mm 4 m/s 715 mmHg 58%
    11:00 +6°C° 0 mm 4 m/s 714 mmHg 56%
    12:00 +7°C° 0 mm 5 m/s 714 mmHg 55%
    13:00 +7°C° 0 mm 5 m/s 714 mmHg 54%
    14:00 +7°C° 0.1 mm 5 m/s 713 mmHg 55%
    15:00 +7°C° 0.1 mm 5 m/s 713 mmHg 55%
    16:00 +7°C° 0.1 mm 5 m/s 713 mmHg 55%
    17:00 +6°C° 0.1 mm 4 m/s 713 mmHg 64%
    18:00 +5°C° 0.1 mm 4 m/s 714 mmHg 73%
    19:00 +3°C° 0.1 mm 3 m/s 714 mmHg 83%
    20:00 +3°C° 0.3 mm 3 m/s 714 mmHg 83%
    21:00 +1°C° 0.3 mm 4 m/s 715 mmHg 83%
    22:00 0°C° 0.3 mm 4 m/s 716 mmHg 83%
    23:00 0°C° 0 mm 4 m/s 716 mmHg 82%
    Voir plus